Location: Knowlton
(51.2333°N, 1.2667°E)
Time: 09:12:45
(UTC+00:00)

SJ-6B - Pass Details

Date: 18 April 2021
Orbit: 510 x 580 km, 97.6° (Epoch: 05 May)

Event Time Altitude Azimuth Distance (km) Brightness Sun altitude
Rises 19:37:08 0° 167° (SSE) 2,609 5.9 -6.7°
Reaches altitude 10° 19:39:12 10° 169° (S) 1,729 5.0 -7.0°
Maximum altitude 19:42:56 80° 257° (WSW) 528 2.8 -7.5°
Drops below altitude 10° 19:46:43 10° 344° (NNW) 1,758 6.1 -8.0°
Sets 19:48:50 0° 346° (NNW) 2,658 7.0 -8.3°
